SCP
0 0 0 0 0 0 0 0 0 0 0 0 0 0 0 0 0 0 0 0 0 0 -0 -0 -0 -0 -0 -0 -0 -0 -0 -0 -0 -0 0 0 0 0 -0 -0 0 0 0
0 0 0 0 0 0 0 0 0 0 0 0 0 0 0 0 0 0 0 0 0 0 0 -0 -0 -0 -0 -0 -0 -0 -0 -0 -0 -0 0 0 0 0 0 0 0 0 0
0 0 0 0 0 0 0 0 0 0 0 0 0 0 0 0 0 0 0 0 0 0 0 0 0 -0 -0 -0 -0 -0 -0 -0 -0 -0 0 0 0 0 0 0 0 0 0
0 0 0 0 0 0 0 0 0 0 0 0 0 0 0 0 0 0 0 0 0 0 0 0 -0 -0 -0 -0 -0 -0 -0 -0 -0 -0 0 0 0 0 0 0 0 0 0
0 0 0 0 0 0 0 0 0 0 0 0 0 0 0 0 0 0 0 0 0 0 0 0 0 0 0 -0 -0 -0 -0 -0 -0 -0 0 0 0 0 0 0 0 0 0
0 0 0 0 0 0 0 0 0 0 0 0 0 0 0 0 0 0 0 0 0 0 0 0 0 0 0 0 0 0 -0 -0 -0 -0 0 0 0 0 0 0 0 0 0
0 0 0 0 0 0 0 0 0 0 0 0 0 0 0 0 0 0 0 0 0 0 0 0 0 0 0 0 0 0 0 -0 -0 -0 0 0 0 0 0 0 0 0 0
0 0 0 0 0 0 0 0 0 0 0 0 0 0 0 0 0 0 0 0 0 0 0 0 0 0 0 0 0 -0 0 -0 -0 -0 0 0 0 0 0 0 0 0 0
0 0 0 0 0 0 0 0 0 0 0 0 0 0 0 0 0 0 0 0 0 0 0 0 0 0 0 0 0 0 -0 -0 0 -0 0 0 0 0 0 0 0 0 0
0 0 0 0 0 0 0 0 0 0 0 0 0 0 0 0 0 0 0 0 0 0 0 0 0 0 0 0 0 0 0 -0 -0 -0 0 0 0 0 0 0 0 0 0
0 0 0 0 0 0 0 0 0 0 0 0 0 0 0 0 0 0 0 0 0 0 0 0 0 0 0 0 0 0 0 -0 -0 -0 -0 0 0 0 0 0 0 0 0
0 0 0 0 0 0 0 0 0 0 0 0 0 0 0 0 0 0 0 0 0 0 0 0 0 0 0 0 0 0 0 0 0 0 0 0 0 0 0 0 0 0 0
0 0 0 0 0 0 0 0 0 0 0 0 0 0 0 0 0 0 0 0 0 0 0 0 0 0 0 0 0 0 0 0 0 0 0 0 0 0 0 0 0 0 0
0 0 0 0 0 0 0 0 0 0 0 0 0 0 0 0 0 0 0 0 0 0 0 0 0 0 0 0 0 0 0 0 0 0 0 0 0 0 0 0 0 0 0
0 0 0 0 0 0 0 0 0 0 0 0 0 0 0 0 0 0 0 0 0 0 0 0 0 0 0 0 0 0 0 0 0 0 0 0 0 0 0 0 0 0 0
0 0 0 0 0 0 0 0 0 0 0 0 0 0 0 0 0 0 0 0 0 0 0 0 0 0 0 0 0 0 0 0 0 0 0 0 0 0 0 0 0 0 0
0 0 0 0 0 0 0 0 0 0 0 0 0 0 0 0 0 0 0 0 0 0 0 0 0 0 0 0 0 0 0 0 0 0 0 0 0 0 0 0 0 0 0
0 0 0 0 0 0 0 0 0 0 0 0 0 0 0 0 0 0 0 0 0 0 0 0 0 0 0 0 0 0 0 0 0 0 0 0 0 0 0 0 0 0 0
0 0 0 0 0 0 0 0 0 0 0 0 0 0 0 0 0 0 0 0 0 0 0 0 0 0 0 0 0 0 0 0 0 0 0 0 0 0 0 0 0 0 0
0 0 0 0 0 0 0 0 0 0 0 0 0 0 0 0 0 0 0 0 0 0 0 0 0 0 0 0 0 0 0 0 0 0 0 0 0 0 0 0 0 0 0
0 0 0 0 0 0 0 -0 0 0 0 0 0 0 0 0 0 0 0 0 0 0 0 0 0 0 0 0 0 0 0 0 0 0 0 0 0 0 0 0 0 0 0
0 0 0 0 0 0 0 0 -0 0 0 0 0 0 0 0 0 0 0 0 0 0 0 0 0 0 0 0 0 0 0 0 0 0 0 0 0 0 0 0 0 0 0
0 0 0 0 0 0 0 0 -0 0 0 0 0 0 0 0 0 0 0 0 0 0 0 0 0 0 0 0 0 0 0 0 0 0 0 0 0 0 0 0 0 0 0
0 0 0 0 0 0 0 0 0 -0 -0 0 0 0 0 0 0 0 0 0 0 0 0 0 0 0 0 0 0 0 0 0 0 0 0 0 0 0 0 0 0 0 0
0 0 0 0 0 0 0 0 0 0 -0 0 0 0 0 0 0 0 0 0 0 0 0 0 0 0 0 0 0 0 0 0 0 0 0 0 0 0 0 0 0 0 0
0 0 0 0 0 0 0 0 0 0 0 0 0 0 0 0 0 0 0 0 0 0 0 0 0 0 0 0 0 0 0 0 0 0 0 0 0 0 0 0 0 0 0
Wind_Speed_500mb
56 64 71 72 66 73 79 75 65 56 50 46 38 30 24 17 13 11 13 15 23 26 30 29 29 27 29 27 26 25 25 24 24 23 24 23 23 24 24 23 22 21 22
60 61 70 66 71 82 83 74 66 58 54 47 40 33 22 15 13 11 13 17 21 28 30 28 27 26 26 25 24 25 25 25 23 23 22 20 20 21 21 20 20 19 18
63 75 72 69 73 85 86 77 66 57 55 51 41 34 25 16 14 11 13 18 21 26 30 28 27 26 25 23 24 24 24 24 23 21 20 19 18 18 18 17 17 16 15
66 79 80 67 79 85 87 79 68 59 61 57 48 38 30 20 17 12 13 18 23 25 26 28 27 25 22 21 21 22 23 23 22 21 19 17 16 16 15 15 14 13 12
72 79 76 84 73 81 86 81 78 68 69 61 51 41 34 24 18 12 12 17 21 23 24 20 21 20 19 18 19 20 21 21 21 19 18 17 15 15 14 13 12 10 10
76 76 65 90 91 83 92 92 90 77 76 62 55 47 39 30 22 17 13 18 20 23 23 22 21 20 17 16 18 19 20 21 21 20 18 17 15 14 13 12 11 10 8
78 74 69 78 91 82 93 103 84 88 83 67 61 53 41 35 29 23 22 20 21 25 25 24 22 21 20 18 18 19 21 21 21 20 18 16 15 13 12 12 11 10 9
82 74 81 73 85 87 86 103 87 85 93 86 75 63 43 38 37 33 30 28 24 27 27 25 24 23 23 22 23 22 21 23 22 21 19 17 15 14 13 13 12 11 10
66 69 69 62 70 71 77 100 104 103 104 91 77 56 31 20 44 42 41 37 35 32 32 30 28 26 26 27 29 27 25 24 25 23 21 19 17 15 15 14 15 14 13
70 87 86 59 64 71 66 86 93 85 115 98 84 73 57 43 26 22 48 50 46 44 40 39 36 33 30 30 32 30 29 27 25 25 23 21 19 18 18 18 18 17 17
71 69 80 70 69 72 64 78 99 93 93 92 96 79 56 49 34 24 21 43 59 55 51 47 43 40 36 34 35 32 32 29 29 28 25 23 22 20 21 21 19 20 20
60 83 78 94 70 70 74 65 66 75 69 84 81 86 79 66 56 41 28 26 28 44 56 50 48 46 43 40 37 34 34 31 30 30 28 26 25 22 21 21 20 21 22
62 67 90 82 80 82 81 69 73 81 88 84 88 86 82 74 61 49 43 27 26 27 29 47 50 46 46 44 41 37 36 35 33 32 31 29 28 25 25 23 22 22 24
66 62 62 82 80 88 91 87 83 86 91 89 97 94 84 82 75 65 55 36 31 33 31 34 44 48 46 45 40 37 38 36 35 34 32 31 29 28 27 26 24 24 25
56 66 65 73 98 100 96 93 85 92 98 102 106 98 89 86 80 76 73 68 41 34 25 28 37 34 41 43 41 41 43 38 37 36 34 30 29 30 31 30 26 27 29
44 58 58 66 77 93 106 104 99 96 98 98 102 99 93 87 83 77 78 77 73 49 39 23 14 28 34 35 38 43 43 40 40 39 37 34 33 32 31 32 30 31 31
42 48 61 63 69 97 101 102 101 97 96 89 90 96 91 83 85 81 80 82 83 73 52 42 46 33 21 32 30 37 47 44 43 41 39 36 37 36 34 33 35 35 37
45 61 64 78 74 89 92 105 102 101 102 98 100 102 106 102 106 101 95 93 84 80 77 63 44 53 43 35 30 35 33 38 42 41 41 40 41 40 38 40 41 41 42
41 54 49 50 51 82 89 90 84 102 107 109 109 113 114 101 99 97 98 86 86 79 74 66 59 61 54 49 43 43 38 40 42 44 43 46 46 45 47 46 46 47 48
31 52 57 62 61 71 52 59 89 89 100 102 108 110 107 107 115 104 89 77 95 83 68 66 65 62 67 63 59 56 51 49 47 48 48 47 46 48 52 50 51 50 52
28 38 52 52 49 84 89 69 57 98 92 104 102 104 97 100 102 99 106 92 91 85 68 69 68 67 71 70 70 69 62 63 59 58 53 52 51 53 53 53 57 56 52
26 28 38 53 57 56 52 52 48 86 102 92 92 85 92 94 97 95 88 86 93 101 97 91 86 79 77 72 68 74 70 69 66 65 58 59 55 56 52 53 57 55 54
26 23 24 30 51 53 61 52 47 59 95 89 81 85 81 96 102 92 101 89 85 86 97 93 87 82 73 74 69 73 73 75 67 62 56 55 56 53 51 53 51 50 53
37 26 22 24 27 32 50 66 62 60 60 79 75 56 79 100 100 107 92 101 98 108 111 102 98 89 79 74 70 62 66 56 57 62 62 61 64 62 60 60 57 54 52
49 36 26 19 18 24 41 55 54 87 84 77 67 71 60 73 80 87 91 96 95 104 104 103 98 95 89 84 80 70 68 62 63 69 67 64 67 65 67 65 58 55 56
59 49 36 24 16 17 23 41 59 54 59 76 65 81 70 64 66 93 82 112 101 95 93 101 105 104 97 95 91 85 78 75 75 75 76 71 70 70 65 63 60 59 57
Wind_Direction_500mb
215 188 189 196 194 188 187 187 186 183 180 177 174 170 160 148 138 137 148 152 152 156 153 156 154 156 152 147 145 142 137 131 129 129 127 129 128 127 120 117 114 109 104
216 194 195 201 188 191 192 192 192 187 184 183 179 174 169 155 149 139 151 153 157 157 162 161 162 161 154 150 151 148 143 140 137 134 130 129 126 123 125 124 120 116 108
223 200 197 195 190 194 196 196 197 193 189 187 184 180 178 167 162 150 157 159 161 162 167 170 166 165 165 158 160 157 152 150 144 138 139 135 132 131 131 132 130 124 116
229 206 202 193 193 197 200 199 197 195 194 191 186 185 183 176 171 164 162 164 166 168 176 176 174 177 171 171 170 164 161 157 152 151 146 142 141 138 140 144 144 138 127
230 220 220 211 204 195 202 208 202 202 197 194 190 190 186 177 174 175 173 175 175 174 173 174 179 181 185 184 181 175 175 168 164 161 156 154 153 154 156 160 158 154 149
232 230 231 209 208 200 199 206 212 200 203 195 193 193 189 183 176 181 187 188 188 185 182 183 186 190 193 193 192 191 189 183 177 171 169 168 168 171 169 177 180 179 176
235 235 225 205 219 204 207 204 209 201 199 197 196 191 187 191 182 194 202 204 203 198 193 194 197 200 205 203 206 205 203 198 190 185 184 183 183 185 187 196 199 203 207
241 232 231 222 223 225 217 211 203 204 200 198 193 189 179 194 201 201 215 217 214 206 204 202 206 210 214 217 214 215 212 210 201 199 198 197 197 201 205 212 217 223 230
231 236 246 215 226 225 224 221 214 201 196 194 204 195 167 188 203 206 217 226 227 223 217 216 216 217 218 219 220 217 215 215 210 207 208 211 211 215 222 225 231 236 242
251 240 227 241 219 219 216 218 202 191 194 191 200 202 205 202 183 201 220 226 230 231 227 224 224 224 224 225 220 221 219 216 214 213 213 220 221 226 232 235 239 242 246
243 243 235 223 224 220 216 213 204 207 201 199 200 198 203 207 204 200 205 227 230 234 232 227 227 227 227 225 222 221 219 221 214 215 218 225 228 230 237 241 245 248 254
240 232 243 241 212 205 204 195 200 220 218 206 208 214 213 213 212 220 224 243 240 240 238 230 229 227 226 225 225 222 222 221 217 219 222 225 231 234 241 247 251 256 259
242 237 229 232 205 210 215 215 211 213 220 216 213 219 224 227 230 239 246 247 251 255 238 233 231 230 229 229 226 223 222 224 223 223 225 229 233 235 240 243 248 256 261
250 247 247 236 240 216 220 223 222 218 219 219 221 225 229 235 236 238 250 234 251 259 259 243 230 230 231 231 229 224 226 226 226 227 228 230 233 235 242 248 249 255 261
242 257 244 245 234 228 220 222 219 223 225 226 229 229 231 237 241 243 247 250 246 251 257 264 232 228 229 231 228 224 228 227 229 232 232 233 235 238 243 250 254 257 260
234 241 253 248 253 244 231 222 220 223 226 227 228 231 230 232 240 241 244 251 248 244 247 251 242 237 235 232 233 229 230 231 231 235 236 238 240 244 247 253 254 259 263
217 227 256 255 245 241 240 227 221 220 224 227 224 228 230 236 242 245 249 253 242 241 240 245 249 248 254 232 232 230 230 232 235 236 239 242 246 249 251 255 258 260 265
228 225 234 250 264 251 236 237 226 218 225 227 228 230 237 241 242 246 251 251 235 235 237 246 247 248 249 252 247 238 231 233 238 242 245 248 250 253 256 255 257 261 263
239 224 220 219 241 245 256 232 240 239 239 236 235 236 240 240 239 241 247 238 227 223 237 239 243 248 246 249 251 248 242 239 241 245 245 249 253 255 255 257 260 264 264
267 238 234 235 237 252 254 253 246 246 242 244 242 239 240 242 239 242 239 241 227 230 231 235 242 245 247 248 253 253 250 249 248 249 251 254 258 259 259 257 259 265 264
286 257 243 242 242 236 248 273 279 259 245 241 243 244 246 242 239 242 247 245 227 221 224 234 237 238 247 248 252 256 254 251 251 253 256 254 257 263 264 262 261 258 262
302 283 253 241 235 236 248 248 272 236 248 233 235 237 242 249 247 245 242 246 252 226 218 230 237 238 251 257 258 255 254 251 252 256 260 263 261 266 266 268 262 262 261
333 304 285 260 246 251 245 251 246 242 253 238 241 242 246 247 249 254 249 247 247 225 222 237 243 242 254 255 258 257 256 251 255 260 262 263 264 263 265 270 263 260 259
5 344 312 289 265 259 241 238 233 246 244 240 244 254 261 248 246 247 245 238 240 235 239 246 244 247 252 256 256 259 261 262 257 260 260 259 264 266 269 272 269 261 260
23 19 360 332 306 269 265 252 239 240 247 237 253 249 261 243 238 247 242 248 245 242 243 244 243 249 254 251 253 256 250 249 252 257 257 257 261 266 269 269 268 262 265
28 34 30 19 344 316 296 262 251 247 241 248 250 239 249 241 266 238 246 245 245 250 246 243 247 249 252 250 246 248 250 249 252 254 255 254 260 265 265 260 264 266 262
Wind_Speed_850mb
56 64 71 72 66 73 79 75 65 56 50 46 38 30 24 17 13 11 13 15 23 26 30 29 29 27 29 27 26 25 25 24 24 23 24 23 23 24 24 23 22 21 22
60 61 70 66 71 82 83 74 66 58 54 47 40 33 22 15 13 11 13 17 21 28 30 28 27 26 26 25 24 25 25 25 23 23 22 20 20 21 21 20 20 19 18
63 75 72 69 73 85 86 77 66 57 55 51 41 34 25 16 14 11 13 18 21 26 30 28 27 26 25 23 24 24 24 24 23 21 20 19 18 18 18 17 17 16 15
66 79 80 67 79 85 87 79 68 59 61 57 48 38 30 20 17 12 13 18 23 25 26 28 27 25 22 21 21 22 23 23 22 21 19 17 16 16 15 15 14 13 12
72 79 76 84 73 81 86 81 78 68 69 61 51 41 34 24 18 12 12 17 21 23 24 20 21 20 19 18 19 20 21 21 21 19 18 17 15 15 14 13 12 10 10
76 76 65 90 91 83 92 92 90 77 76 62 55 47 39 30 22 17 13 18 20 23 23 22 21 20 17 16 18 19 20 21 21 20 18 17 15 14 13 12 11 10 8
78 74 69 78 91 82 93 103 84 88 83 67 61 53 41 35 29 23 22 20 21 25 25 24 22 21 20 18 18 19 21 21 21 20 18 16 15 13 12 12 11 10 9
82 74 81 73 85 87 86 103 87 85 93 86 75 63 43 38 37 33 30 28 24 27 27 25 24 23 23 22 23 22 21 23 22 21 19 17 15 14 13 13 12 11 10
66 69 69 62 70 71 77 100 104 103 104 91 77 56 31 20 44 42 41 37 35 32 32 30 28 26 26 27 29 27 25 24 25 23 21 19 17 15 15 14 15 14 13
70 87 86 59 64 71 66 86 93 85 115 98 84 73 57 43 26 22 48 50 46 44 40 39 36 33 30 30 32 30 29 27 25 25 23 21 19 18 18 18 18 17 17
71 69 80 70 69 72 64 78 99 93 93 92 96 79 56 49 34 24 21 43 59 55 51 47 43 40 36 34 35 32 32 29 29 28 25 23 22 20 21 21 19 20 20
60 83 78 94 70 70 74 65 66 75 69 84 81 86 79 66 56 41 28 26 28 44 56 50 48 46 43 40 37 34 34 31 30 30 28 26 25 22 21 21 20 21 22
62 67 90 82 80 82 81 69 73 81 88 84 88 86 82 74 61 49 43 27 26 27 29 47 50 46 46 44 41 37 36 35 33 32 31 29 28 25 25 23 22 22 24
66 62 62 82 80 88 91 87 83 86 91 89 97 94 84 82 75 65 55 36 31 33 31 34 44 48 46 45 40 37 38 36 35 34 32 31 29 28 27 26 24 24 25
56 66 65 73 98 100 96 93 85 92 98 102 106 98 89 86 80 76 73 68 41 34 25 28 37 34 41 43 41 41 43 38 37 36 34 30 29 30 31 30 26 27 29
44 58 58 66 77 93 106 104 99 96 98 98 102 99 93 87 83 77 78 77 73 49 39 23 14 28 34 35 38 43 43 40 40 39 37 34 33 32 31 32 30 31 31
42 48 61 63 69 97 101 102 101 97 96 89 90 96 91 83 85 81 80 82 83 73 52 42 46 33 21 32 30 37 47 44 43 41 39 36 37 36 34 33 35 35 37
45 61 64 78 74 89 92 105 102 101 102 98 100 102 106 102 106 101 95 93 84 80 77 63 44 53 43 35 30 35 33 38 42 41 41 40 41 40 38 40 41 41 42
41 54 49 50 51 82 89 90 84 102 107 109 109 113 114 101 99 97 98 86 86 79 74 66 59 61 54 49 43 43 38 40 42 44 43 46 46 45 47 46 46 47 48
31 52 57 62 61 71 52 59 89 89 100 102 108 110 107 107 115 104 89 77 95 83 68 66 65 62 67 63 59 56 51 49 47 48 48 47 46 48 52 50 51 50 52
28 38 52 52 49 84 89 69 57 98 92 104 102 104 97 100 102 99 106 92 91 85 68 69 68 67 71 70 70 69 62 63 59 58 53 52 51 53 53 53 57 56 52
26 28 38 53 57 56 52 52 48 86 102 92 92 85 92 94 97 95 88 86 93 101 97 91 86 79 77 72 68 74 70 69 66 65 58 59 55 56 52 53 57 55 54
26 23 24 30 51 53 61 52 47 59 95 89 81 85 81 96 102 92 101 89 85 86 97 93 87 82 73 74 69 73 73 75 67 62 56 55 56 53 51 53 51 50 53
37 26 22 24 27 32 50 66 62 60 60 79 75 56 79 100 100 107 92 101 98 108 111 102 98 89 79 74 70 62 66 56 57 62 62 61 64 62 60 60 57 54 52
49 36 26 19 18 24 41 55 54 87 84 77 67 71 60 73 80 87 91 96 95 104 104 103 98 95 89 84 80 70 68 62 63 69 67 64 67 65 67 65 58 55 56
59 49 36 24 16 17 23 41 59 54 59 76 65 81 70 64 66 93 82 112 101 95 93 101 105 104 97 95 91 85 78 75 75 75 76 71 70 70 65 63 60 59 57
Wind_Direction_850mb
215 188 189 196 194 188 187 187 186 183 180 177 174 170 160 148 138 137 148 152 152 156 153 156 154 156 152 147 145 142 137 131 129 129 127 129 128 127 120 117 114 109 104
216 194 195 201 188 191 192 192 192 187 184 183 179 174 169 155 149 139 151 153 157 157 162 161 162 161 154 150 151 148 143 140 137 134 130 129 126 123 125 124 120 116 108
223 200 197 195 190 194 196 196 197 193 189 187 184 180 178 167 162 150 157 159 161 162 167 170 166 165 165 158 160 157 152 150 144 138 139 135 132 131 131 132 130 124 116
229 206 202 193 193 197 200 199 197 195 194 191 186 185 183 176 171 164 162 164 166 168 176 176 174 177 171 171 170 164 161 157 152 151 146 142 141 138 140 144 144 138 127
230 220 220 211 204 195 202 208 202 202 197 194 190 190 186 177 174 175 173 175 175 174 173 174 179 181 185 184 181 175 175 168 164 161 156 154 153 154 156 160 158 154 149
232 230 231 209 208 200 199 206 212 200 203 195 193 193 189 183 176 181 187 188 188 185 182 183 186 190 193 193 192 191 189 183 177 171 169 168 168 171 169 177 180 179 176
235 235 225 205 219 204 207 204 209 201 199 197 196 191 187 191 182 194 202 204 203 198 193 194 197 200 205 203 206 205 203 198 190 185 184 183 183 185 187 196 199 203 207
241 232 231 222 223 225 217 211 203 204 200 198 193 189 179 194 201 201 215 217 214 206 204 202 206 210 214 217 214 215 212 210 201 199 198 197 197 201 205 212 217 223 230
231 236 246 215 226 225 224 221 214 201 196 194 204 195 167 188 203 206 217 226 227 223 217 216 216 217 218 219 220 217 215 215 210 207 208 211 211 215 222 225 231 236 242
251 240 227 241 219 219 216 218 202 191 194 191 200 202 205 202 183 201 220 226 230 231 227 224 224 224 224 225 220 221 219 216 214 213 213 220 221 226 232 235 239 242 246
243 243 235 223 224 220 216 213 204 207 201 199 200 198 203 207 204 200 205 227 230 234 232 227 227 227 227 225 222 221 219 221 214 215 218 225 228 230 237 241 245 248 254
240 232 243 241 212 205 204 195 200 220 218 206 208 214 213 213 212 220 224 243 240 240 238 230 229 227 226 225 225 222 222 221 217 219 222 225 231 234 241 247 251 256 259
242 237 229 232 205 210 215 215 211 213 220 216 213 219 224 227 230 239 246 247 251 255 238 233 231 230 229 229 226 223 222 224 223 223 225 229 233 235 240 243 248 256 261
250 247 247 236 240 216 220 223 222 218 219 219 221 225 229 235 236 238 250 234 251 259 259 243 230 230 231 231 229 224 226 226 226 227 228 230 233 235 242 248 249 255 261
242 257 244 245 234 228 220 222 219 223 225 226 229 229 231 237 241 243 247 250 246 251 257 264 232 228 229 231 228 224 228 227 229 232 232 233 235 238 243 250 254 257 260
234 241 253 248 253 244 231 222 220 223 226 227 228 231 230 232 240 241 244 251 248 244 247 251 242 237 235 232 233 229 230 231 231 235 236 238 240 244 247 253 254 259 263
217 227 256 255 245 241 240 227 221 220 224 227 224 228 230 236 242 245 249 253 242 241 240 245 249 248 254 232 232 230 230 232 235 236 239 242 246 249 251 255 258 260 265
228 225 234 250 264 251 236 237 226 218 225 227 228 230 237 241 242 246 251 251 235 235 237 246 247 248 249 252 247 238 231 233 238 242 245 248 250 253 256 255 257 261 263
239 224 220 219 241 245 256 232 240 239 239 236 235 236 240 240 239 241 247 238 227 223 237 239 243 248 246 249 251 248 242 239 241 245 245 249 253 255 255 257 260 264 264
267 238 234 235 237 252 254 253 246 246 242 244 242 239 240 242 239 242 239 241 227 230 231 235 242 245 247 248 253 253 250 249 248 249 251 254 258 259 259 257 259 265 264
286 257 243 242 242 236 248 273 279 259 245 241 243 244 246 242 239 242 247 245 227 221 224 234 237 238 247 248 252 256 254 251 251 253 256 254 257 263 264 262 261 258 262
302 283 253 241 235 236 248 248 272 236 248 233 235 237 242 249 247 245 242 246 252 226 218 230 237 238 251 257 258 255 254 251 252 256 260 263 261 266 266 268 262 262 261
333 304 285 260 246 251 245 251 246 242 253 238 241 242 246 247 249 254 249 247 247 225 222 237 243 242 254 255 258 257 256 251 255 260 262 263 264 263 265 270 263 260 259
5 344 312 289 265 259 241 238 233 246 244 240 244 254 261 248 246 247 245 238 240 235 239 246 244 247 252 256 256 259 261 262 257 260 260 259 264 266 269 272 269 261 260
23 19 360 332 306 269 265 252 239 240 247 237 253 249 261 243 238 247 242 248 245 242 243 244 243 249 254 251 253 256 250 249 252 257 257 257 261 266 269 269 268 262 265
28 34 30 19 344 316 296 262 251 247 241 248 250 239 249 241 266 238 246 245 245 250 246 243 247 249 252 250 246 248 250 249 252 254 255 254 260 265 265 260 264 266 262